Date,TemperatureHighF,TemperatureAvgF,TemperatureLowF,DewpointHighF,DewpointAvgF,DewpointLowF,HumidityHigh,HumidityAvg,HumidityLow,PressureMaxIn,PressureMinIn,WindSpeedMaxMPH,WindSpeedAvgMPH,GustSpeedMaxMPH,PrecipitationSumIn
2014-1-13,50,46,41,40,39,37,86,77,62,30.26,30.03,9,3,14,0.01
2014-1-14,55,41,34,39,36,32,99,84,53,30.34,30.20,9,2,15,0.00
2014-1-15,56,39,29,38,33,29,99,83,48,30.27,30.14,5,2,8,0.00
2014-1-16,41,31,28,37,31,28,99,98,84,30.28,30.13,2,1,4,0.00
2014-1-17,33,30,28,33,30,27,99,99,97,30.15,30.08,4,1,5,0.00
2014-1-18,30,29,27,30,28,27,99,99,98,30.10,29.96,4,1,5,0.00
2014-1-19,32,29,27,29,28,27,99,96,87,30.14,29.89,3,1,4,0.00
2014-1-20,31,28,27,28,27,26,99,96,91,30.25,30.13,4,1,7,0.00
2014-1-21,30,27,26,27,26,24,99,93,84,30.20,30.06,3,1,5,0.00
2014-1-22,37,29,25,32,27,24,97,93,77,30.24,30.06,4,1,5,0.00
2014-1-23,43,30,27,36,29,26,99,97,76,30.32,30.22,4,1,5,0.00
2014-1-24,32,28,27,29,28,27,99,96,89,30.35,30.26,3,1,5,0.00
2014-1-25,31,28,26,27,26,26,98,94,86,30.26,30.05,3,1,5,0.00
2014-1-26,30,27,26,26,25,24,97,92,84,30.05,29.98,4,1,7,0.00
2014-1-27,34,29,25,30,27,24,95,90,79,30.14,30.01,4,1,7,0.00
2014-1-28,34,31,28,31,29,28,99,94,87,30.09,29.79,2,0,4,0.00
2014-1-29,34,29,27,33,29,27,99,99,94,29.79,29.40,2,0,4,0.00
2014-1-30,38,31,26,36,30,26,99,98,89,29.63,29.50,2,0,4,0.01
2014-1-31,39,31,28,34,31,28,99,97,80,29.85,29.62,4,0,5,0.02
2014-2-1,33,28,24,28,26,21,99,92,79,29.89,29.82,3,1,99,0.00
2014-2-2,32,26,23,24,22,-10,98,86,18,29.84,29.67,12,1,12,0.00
2014-2-3,28,23,10,25,22,-26,99,95,10,29.92,29.71,104,1,104,0.00
2014-2-4,21,18,14,19,14,10,97,85,67,30.19,29.92,11,2,15,0.00
2014-2-5,18,8,-2,10,0,-6,89,71,38,30.27,30.14,15,4,18,0.00
2014-2-6,15,6,-4,7,-1,-8,90,75,42,30.14,29.58,10,2,13,0.00
2014-2-7,32,14,7,14,9,5,91,79,43,29.67,29.56,9,2,11,0.00
2014-2-8,24,12,9,14,9,7,92,87,62,29.88,29.67,5,1,8,0.00
2014-2-10,24,24,24,24,24,24,99,99,99,29.78,29.72,0,0,0,0.01
2014-2-11,42,31,23,39,30,23,99,97,85,29.84,29.48,5,0,8,0.19
2014-2-12,47,36,30,42,34,30,99,92,65,29.56,29.29,14,2,18,0.46
2014-2-13,40,34,32,40,34,32,99,99,95,29.81,29.45,5,1,8,0.45
2014-2-14,35,33,32,35,32,32,99,99,99,29.69,29.42,4,0,6,0.00
2014-2-15,33,32,30,33,31,29,99,99,99,29.70,29.20,1,0,2,0.00
2014-2-16,42,34,32,34,31,28,99,91,65,29.66,29.30,13,1,18,0.02
2014-2-17,40,34,32,38,33,31,99,97,86,29.65,29.42,12,1,17,0.06
2014-2-18,34,33,32,34,32,31,99,99,95,29.67,29.32,97,1,14,0.02
2014-2-19,38,32,30,35,32,30,99,97,83,29.80,29.49,7,1,11,0.09
2014-2-20,37,32,29,37,32,29,99,98,78,29.81,29.65,11,1,17,0.07
2014-2-21,40,34,27,32,28,24,99,80,59,29.90,29.79,11,3,18,0.11
2014-2-22,32,28,22,30,26,20,99,92,82,29.89,29.76,4,1,5,0.00
2014-2-23,32,29,22,32,29,22,99,98,92,29.81,29.69,0,0,2,0.09
2014-2-24,31,28,27,30,28,27,99,98,91,29.98,29.82,2,0,3,0.00
2014-2-25,35,29,26,30,28,26,99,93,76,30.08,29.97,0,0,0,0.00
2014-2-26,45,32,26,33,28,23,99,88,50,29.97,29.60,4,0,7,0.04
2014-2-27,44,32,26,36,30,26,99,92,58,29.60,29.43,3,0,4,0.01
2014-2-28,53,37,29,37,31,25,99,81,40,29.50,29.36,4,2,8,0.00
2014-3-1,36,23,11,28,17,-34,95,79,10,29.67,29.40,97,4,97,0.05
2014-3-2,25,19,15,21,17,14,98,91,75,29.66,29.52,2,1,27,0.05
2014-3-3,29,23,19,29,22,18,99,96,88,29.62,29.52,4,0,5,0.00
2014-3-4,40,34,29,39,34,29,99,99,94,29.70,29.61,4,0,6,0.76
2014-3-5,54,37,32,46,36,32,99,97,74,29.62,29.27,5,1,8,0.89
2014-3-6,45,38,35,45,38,35,99,98,88,29.73,29.27,10,1,17,0.38
2014-3-7,53,40,31,41,36,30,99,85,50,29.97,29.73,9,2,53,0.01
2014-3-8,38,33,29,37,33,29,99,97,87,29.94,29.57,2,0,4,0.84
2014-3-9,52,41,33,45,38,33,99,90,61,29.71,29.58,10,1,14,0.15
2014-3-10,51,40,34,39,34,29,99,80,48,30.08,29.62,13,2,30,0.01
2014-3-11,56,38,28,31,28,16,98,70,23,30.26,30.08,5,2,8,0.00
2014-3-12,60,37,26,32,28,24,99,76,30,30.19,29.86,4,1,4,0.00
2014-3-13,32,31,30,30,29,28,95,93,91,29.87,29.84,4,1,5,0.00
2014-3-14,46,38,32,44,36,32,99,95,75,30.01,29.64,14,1,18,0.48
2014-3-15,49,39,32,40,36,31,99,90,62,30.09,29.91,6,1,8,0.07
2014-3-16,44,40,36,42,39,35,99,96,83,29.91,29.57,7,2,9,0.28
2014-3-17,82,38,30,78,28,-3,94,70,17,29.98,29.56,54,4,54,0.09
2014-3-18,50,37,26,36,29,22,90,74,53,30.00,29.87,9,2,15,0.00
2014-3-19,46,36,32,42,34,28,99,91,71,29.87,29.65,20,2,24,0.22
2014-3-20,47,36,28,34,28,22,89,71,42,30.04,29.77,14,3,20,0.00
2014-3-21,50,33,22,26,22,7,93,69,17,30.04,29.93,5,2,11,0.00
2014-3-22,52,35,23,34,25,16,92,70,26,30.05,29.89,10,2,17,0.00
2014-3-23,56,39,29,34,29,19,99,71,24,30.01,29.89,13,2,17,0.00
2014-3-24,59,42,31,32,28,23,90,63,26,30.01,29.80,7,2,9,0.00
2014-3-25,53,42,36,43,38,33,99,87,59,29.48,29.32,6,1,10,0.13
2014-3-26,52,41,31,38,35,28,99,80,41,29.36,29.25,9,1,13,0.02
2014-3-27,54,40,31,39,35,31,99,84,48,29.61,29.31,16,2,20,0.00
2014-3-28,40,35,31,39,35,30,99,98,89,29.64,29.50,4,1,5,0.20
2014-3-29,49,38,33,43,37,33,99,95,77,29.54,29.47,8,1,12,0.07
2014-3-30,52,39,31,39,33,30,99,81,49,29.72,29.53,14,3,21,0.01
2014-3-31,55,39,27,35,30,25,99,75,33,29.72,29.52,8,1,10,0.00
2014-4-1,58,42,31,36,33,27,99,73,34,29.61,29.49,12,2,17,0.00
2014-4-2,54,42,30,34,29,24,94,64,36,29.74,29.60,16,3,18,0.00
2014-4-3,55,42,31,38,31,24,92,69,32,29.74,29.59,10,2,14,0.00
2014-4-4,52,42,34,38,34,27,99,77,49,29.68,29.58,16,3,21,0.01
2014-4-5,51,40,32,42,36,30,99,86,62,29.75,29.67,9,2,12,0.13
2014-4-6,58,46,37,41,38,34,99,73,41,30.03,29.74,14,3,23,0.01
2014-4-7,69,48,38,46,41,37,96,78,34,30.04,29.85,5,1,8,0.00
2014-4-8,60,46,36,48,41,36,99,85,55,29.89,29.70,11,2,20,0.12
2014-4-9,52,44,38,39,30,26,86,60,38,29.90,29.76,18,4,28,0.00
2014-4-10,56,47,34,33,30,21,79,52,34,29.91,29.79,7,3,13,0.00
2014-4-11,55,46,35,38,33,31,87,62,46,29.82,29.72,10,3,16,0.00
2014-4-12,61,46,32,36,30,18,97,60,22,29.94,29.72,11,2,15,0.00
2014-4-13,65,44,28,33,25,4,98,58,10,30.09,29.94,8,1,10,0.00
2014-4-14,68,46,29,35,27,7,99,58,10,30.03,29.72,12,2,16,0.00
2014-4-15,53,46,41,35,30,21,77,53,34,29.83,29.75,18,4,26,0.00
2014-4-16,51,45,38,41,38,35,92,77,65,29.79,29.69,10,2,14,0.00
2014-4-17,52,44,39,48,43,39,99,94,77,29.69,29.48,5,1,8,0.38
2014-4-18,51,43,33,40,32,25,99,67,43,29.78,29.52,19,4,31,0.00